Regional Weather Roundup
Issued by NWS

Current Version | Previous Version | Text Only | Print | Product List | Glossary Off
Versions: 1 2 3 4 5 6 7 8 9 10 11 12 13 14 15 16 17 18 19 20 21 22 23 24 25 26 27 28 29 30 31 32 33 34 35 36 37 38 39 40 41 42 43 44 45 46 47 48 49 50

000
ASUS44 KMEG 112110
RWRTN
TENNESSEE HOURLY STATE WEATHER ROUNDUP
NATIONAL WEATHER SERVICE MEMPHIS TN
300 PM CST THU FEB 11 2016

TNZ002-004-019-021-049-052-054-088>092-112200-
WEST TENNESSEE

CITY           SKY/WX    TMP DP  RH WIND       PRES   REMARKS
MEMPHIS INTL   MOSUNNY   54  21  27 VRB6      30.17R
NWS MEMPHIS      N/A     51 N/A N/A MISG        N/A
JACKSON        SUNNY     49  23  36 N10       30.19R
DYERSBURG      SUNNY     43  23  45 NE14      30.23S
UNION CITY     SUNNY     39  25  56 E10       30.22S WCI  32
PARIS          SUNNY     39  21  48 NE8       30.22S WCI  34
LEXINGTON      SUNNY     45  19  36 NE9       30.18S
$$

TNZ008-025-027-028-033-062-065-066-112200-
NORTH MIDDLE TENNESSEE

CITY           SKY/WX    TMP DP  RH WIND       PRES   REMARKS
NASHVILLE      MOSUNNY   44  21  40 N8        30.22S
CLARKSVILLE    SUNNY     38  23  55 N6        30.24S WCI  33
SMYRNA         SUNNY     44  23  43 N7        30.23R
COOKEVILLE     SUNNY     39  23  52 VRB5      30.18R
CROSSVILLE     SUNNY     39  20  46 N7        30.14S WCI  34
$$

TNZ061-075-076-078-094-096-097-112200-
SOUTH MIDDLE TENNESSEE

CITY           SKY/WX    TMP DP  RH WIND       PRES   REMARKS
FAYETTEVILLE   SUNNY     46  23  39 VRB5      30.16R
TULLAHOMA      SUNNY     41  21  45 NE8       30.18R
WINCHESTER     SUNNY     45  25  45 N8        30.17S
MCMINNVILLE    SUNNY     39  23  52 VRB5      30.18S
COLUMBIA       SUNNY     45  25  45 E9        30.18S
SHELBYVILLE    SUNNY     45  25  45 NE6       30.20R
$$

TNZ017-018-042-046-047-112200-
NORTHEAST TENNESSEE

CITY           SKY/WX    TMP DP  RH WIND       PRES   REMARKS
TRI CITIES     MOSUNNY   35  16  45 W8        30.15S WCI  29
$$

TNZ012-013-036-069-073-074-112200-
CENTRAL EAST TENNESSEE

CITY           SKY/WX    TMP DP  RH WIND       PRES   REMARKS
KNOXVILLE      MOSUNNY   42  19  39 VRB3      30.17S
OAK RIDGE      PTSUNNY   42  19  39 VRB5      30.19S
GATLINBURG     CLEAR     39  18  41 N7        30.17R WCI  34
MORRISTOWN     PTCLDY    37  18  44 NW6G13    30.16R WCI  33
$$

TNZ083-085-099-112200-
SOUTHEAST TENNESSEE

CITY           SKY/WX    TMP DP  RH WIND       PRES   REMARKS
CHATTANOOGA    SUNNY     46  21  37 E5        30.17S
$$

SKY/WX REPORTED AS FAIR MEANS FEW OR NO CLOUDS BELOW
12 THOUSAND FEET.




USA.gov is the U.S. government's official web portal to all federal, state and local government web resources and services.